Location: Chatham
(39.6760°N, 89.7040°W)
Time: 11:10:45
(UTC-05:00)

Envisat - Visible Passes

Search period start: 22 July 2018 00:00
Search period end: 01 August 2018 00:00
Orbit: 764 x 766 km, 98.2° (Epoch: 22 July)

Date Brightness Start Highest point End Pass type
(mag) Time Alt. Az. Time Alt. Az. Time Alt. Az.
23 Jul 5.8 21:39:09 10° WSW 21:41:21 13° W 21:43:36 10° WNW visible
24 Jul 4.9 20:59:55 10° SSW 21:04:18 29° W 21:08:43 10° NW visible
26 Jul 5.6 21:26:54 10° SW 21:30:05 17° W 21:33:16 10° NW visible
27 Jul 4.5 20:48:24 10° SSW 20:53:04 37° W 20:57:47 10° NNW visible
29 Jul 5.4 21:15:01 10° SW 21:18:48 21° W 21:22:38 10° NW visible
30 Jul 4.1 20:36:59 10° S 20:41:52 47° W 20:46:47 10° NNW visible
31 Jul 5.9 21:43:01 10° WSW 21:44:39 11° W 21:46:17 10° WNW visible
